星链-30758 (STARLINK-30758 )

导读

STARLINK-30758是美国SpaceX公司于2023年10月22日发射的星链卫星,属于星链低轨互联网星座的组成部分,运行在近地轨道上。它依托相控阵天线、霍尔推进等技术,服务全球高速互联网接入,可覆盖偏远地区、海洋等传统网络盲区,助力星链全球宽带网络的部署,为用户提供低延迟的卫星互联网服务。

Basic Information
目录编号:
58133
目录名称:
STARLINK-30758
国际标识:
2023-162R
轨道中心:
EARTH
卫星名称:
星链-30758
卫星全名:
星链-30758 (STARLINK-30758 )
卫星状态:
在轨 (已飞行970 天)
发射日期:
2023-10-22 UTC
国别 :
美国 (US)
星等 :
--
Orbit Information
数据来源 国际轨道数据 AOE轨道数据
星历时间 2026-06-18T02:50:11+0800
17小时前
查看轨道信息
2026-06-12T07:00:00+0800
6天前
查看轨道信息
半长轴 6861.201km 6861.198km
偏心率 0.0001239 0.0001465
轨道倾角 43.002° 43.001°
近地点辐角 250.347° 263.544°
升交点赤经 283.946° 316.853°
平近点角 109.725° 57.345°
近地点 482.213km 482.055km
远地点 483.915km 484.067km
周期 94.267分钟 94.267分钟
每日圈数 15.275753 15.275761
Detailed Information
固有亮度:
5
最大亮度:
0.3
卫星平台:
Starlink v2.0 mini
覆盖范围:
全球
运营商:
太空探索技术公司
运营商所在国:
美国
制造商(研发单位):
太空探索技术公司
制造商所在国:
美国
使用方式:
暂无
Satellite Introduction
星链(Starlink)计划是由太空探索技术公司(SpaceX)提出的一个巨型低轨卫星互联网星座项目,计划在2019年至2024年间在太空搭建由约1.2万颗卫星组成的“星链”网络,其中1584颗将部署在地球上空550千米处的近地轨道,并从2020年开始工作。该卫星仍在工作。
2D Orbit Map
3D Orbit Map
Orbit Altitude Analysis Chart
Orbit Inclination Analysis Chart
Orbit Comprehensive Analysis Chart
View Comprehensive Chart